CZ-6A DEB, 61269

Orbit data source: Space-Track

CZ-6A DEB, 61269 is space debris in LEO originally from a launch on Tue, 06 Aug 2024 UTC launched from the Taiyaun Space Center, China (TSC). Debris objects in space refer to the collection of defunct objects orbiting the Earth. Examples of debris include non-operational satellites, rocket bodies, and fragments generated from explosions, collisions, or faulty payload assembly.

Loading next visibility...
Identifier
61269, 2024-140SE
Orbit
LEO
Country
Flag of CNCN / PRC
Related business
Manufacturer
SAST
Mission
Spacecraft
Bus & Motor
Unknown
Mass
Unknown
Launch date (UTC)
2024-08-06 (2 years ago)
Launch vehicle
Unknown
Launch site
Taiyaun Space Center, China (TSC)
Object type
Payload
Rocket body
Debris
Shape & HBR
Unknown shape, 0.1 m
Radar Cross Section
Small (<0.1 m²)

Expand to show TLE details & history
Last TLE update: 1 day ago

TLE from 1 day ago
0 CZ-6A DEB
1 61269U 24140SE  26117.87382201  .00006745  00000-0  24046-2 0  9993
2 61269  89.0558 283.6583 0025992 317.3893  42.5287 14.33950184 87053
Epoch: 2026-04-27T20:58Z
TLE epoch observation values (Epoch: 2026-04-27T20:58:18.221Z)
Latitude
-0.00012°
Longitude
113.22514°
Altitude
767.941 km
Speed
7.477 km/s
True Right ascension
18h 54m 37s
True Declination
0° 00' 00"
Sunlit
Object was in daylight at epoch
Visualization orbit readout
Latitude
Unknown
Longitude
Unknown
Altitude
Unknown
Speed
Unknown
Apparent Right ascension
Unknown
Apparent Declination
Unknown
Sunlit
N/A
Visualization observer readout
Local Sidereal Time
05:07:51
Azimuth
Unknown
Elevation
Unknown
Doppler factor
Unknown
Orbital elements
Apogee altitude
794.082 km
Perigee altitude
756.894 km
Semi-major axis
7,153.625 km
Eccentricity
0.0026
Inclination
89.0558°
RAAN
283.6583°
Arg. of periapsis
317.3893°
True anomaly
42.73051°
Mean anomaly
42.5287°
Eccentric anomaly
42.62956°
Mean motion
3.58719 °/min
Orbital period
100.36 mins
BSTAR
0.0024046
Loading maneuver chart data...
Computing Atmospheric mass density...

Documentation

Showing up to 5 results
|